SLI089 MMMY-MMMX

Flight info

Callsign SLI089
Flight time 1h 7m
Altitude 39000
Route KERGA1A KERGA UT132 DARAN DARAN3A
Aircraft E190/M-SDE3GILORVW/S

Departure

Time 2026-04-24 23:18
Airport Monterrey International Airport (MMMY)

Arrival

Time 2026-04-25 00:26
Airport Mexico City Benito Juárez International Airport (MMMX)
Time Latitude Longitude Altitude Speed Heading
2026-04-24 23:05 25.77604 -100.11113 1279 ft 0 kts 211°
2026-04-24 23:12 25.77607 -100.11111 1279 ft 2 kts 211°
2026-04-24 23:12 25.77619 -100.11103 1281 ft 2 kts 211°
2026-04-24 23:12 25.77630 -100.11095 1282 ft 2 kts 212°
2026-04-24 23:13 25.77640 -100.11087 1279 ft 2 kts 220°
2026-04-24 23:13 25.77646 -100.11082 1279 ft 1 kts 244°
2026-04-24 23:13 25.77648 -100.11076 1279 ft 1 kts 277°
2026-04-24 23:13 25.77647 -100.11070 1279 ft 1 kts 296°
2026-04-24 23:14 25.77645 -100.11065 1279 ft 1 kts 301°
2026-04-24 23:14 25.77643 -100.11062 1279 ft 0 kts 302°
2026-04-24 23:14 25.77645 -100.11064 1279 ft 2 kts 302°
2026-04-24 23:15 25.77668 -100.11107 1279 ft 8 kts 302°
2026-04-24 23:15 25.77709 -100.11158 1279 ft 8 kts 342°
2026-04-24 23:15 25.77765 -100.11129 1279 ft 11 kts 31°
2026-04-24 23:15 25.77836 -100.11096 1279 ft 11 kts 347°
2026-04-24 23:16 25.77891 -100.11166 1279 ft 13 kts 303°
2026-04-24 23:16 25.77942 -100.11262 1280 ft 15 kts 301°
2026-04-24 23:16 25.78001 -100.11370 1280 ft 18 kts 301°
2026-04-24 23:16 25.78071 -100.11494 1280 ft 20 kts 301°
2026-04-24 23:17 25.78135 -100.11613 1280 ft 18 kts 301°
2026-04-24 23:17 25.78203 -100.11737 1280 ft 20 kts 301°
2026-04-24 23:17 25.78293 -100.11787 1280 ft 16 kts 15°
2026-04-24 23:17 25.78384 -100.11719 1282 ft 16 kts 58°
2026-04-24 23:18 25.78323 -100.11546 1280 ft 51 kts 117°
2026-04-24 23:18 25.78015 -100.10985 1279 ft 118 kts 121°
2026-04-24 23:18 25.77494 -100.10034 1424 ft 163 kts 121°
2026-04-24 23:18 25.76872 -100.08902 2129 ft 179 kts 119°
2026-04-24 23:19 25.76176 -100.07654 2671 ft 201 kts 119°
2026-04-24 23:19 25.75435 -100.06299 3662 ft 208 kts 120°
2026-04-24 23:19 25.74668 -100.04906 4654 ft 214 kts 120°
2026-04-24 23:19 25.73879 -100.03472 5552 ft 223 kts 120°
2026-04-24 23:20 25.73055 -100.01970 6366 ft 233 kts 120°
2026-04-24 23:20 25.72194 -100.00405 7109 ft 242 kts 121°
2026-04-24 23:20 25.71230 -99.98857 7922 ft 246 kts 134°
2026-04-24 23:20 25.69827 -99.97806 8781 ft 245 kts 162°
2026-04-24 23:21 25.68179 -99.97490 9752 ft 241 kts 182°
2026-04-24 23:21 25.66492 -99.97476 10762 ft 244 kts 185°
2026-04-24 23:21 25.64787 -99.97484 11761 ft 249 kts 185°
2026-04-24 23:21 25.63038 -99.97485 12734 ft 252 kts 185°
2026-04-24 23:22 25.61270 -99.97484 13659 ft 262 kts 185°
2026-04-24 23:22 25.59339 -99.97515 13999 ft 291 kts 186°
2026-04-24 23:22 25.57226 -99.97577 14479 ft 316 kts 186°
2026-04-24 23:22 25.54944 -99.97647 15008 ft 339 kts 186°
2026-04-24 23:23 25.52538 -99.97723 15831 ft 351 kts 186°
2026-04-24 23:23 25.50079 -99.97794 16830 ft 356 kts 187°
2026-04-24 23:23 25.47587 -99.97876 17811 ft 361 kts 188°
2026-04-24 23:23 25.45061 -99.97980 18661 ft 365 kts 188°
2026-04-24 23:24 25.42542 -99.98103 19437 ft 369 kts 189°
2026-04-24 23:24 25.39959 -99.98245 20208 ft 374 kts 189°
2026-04-24 23:24 25.37344 -99.98402 20960 ft 379 kts 189°
2026-04-24 23:24 25.34695 -99.98573 21733 ft 383 kts 189°
2026-04-24 23:25 25.32014 -99.98708 22510 ft 388 kts 189°
2026-04-24 23:25 25.29305 -99.98833 23221 ft 392 kts 189°
2026-04-24 23:25 25.26563 -99.98959 23840 ft 396 kts 189°
2026-04-24 23:25 25.23796 -99.99088 24394 ft 400 kts 189°
2026-04-24 23:26 25.21009 -99.99218 24953 ft 403 kts 189°
2026-04-24 23:26 25.18194 -99.99350 25504 ft 406 kts 189°
2026-04-24 23:26 25.15354 -99.99485 26037 ft 410 kts 189°
2026-04-24 23:26 25.12489 -99.99621 26538 ft 414 kts 189°
2026-04-24 23:27 25.09602 -99.99759 27091 ft 417 kts 189°
2026-04-24 23:27 25.06689 -99.99897 27604 ft 421 kts 189°
2026-04-24 23:27 25.03750 -100.00037 28153 ft 422 kts 189°
2026-04-24 23:27 25.00804 -100.00175 28670 ft 424 kts 189°
2026-04-24 23:28 24.97826 -100.00313 29035 ft 431 kts 189°
2026-04-24 23:28 24.94815 -100.00447 29430 ft 437 kts 187°
2026-04-24 23:28 24.91756 -100.00368 29806 ft 443 kts 184°
2026-04-24 23:28 24.88668 -100.00184 30167 ft 446 kts 184°
2026-04-24 23:29 24.85561 -99.99988 30428 ft 448 kts 183°
2026-04-24 23:29 24.82443 -99.99793 30717 ft 449 kts 183°
2026-04-24 23:29 24.79318 -99.99607 31057 ft 450 kts 184°
2026-04-24 23:29 24.76182 -99.99432 31419 ft 453 kts 184°
2026-04-24 23:30 24.73033 -99.99258 31764 ft 455 kts 184°
2026-04-24 23:30 24.69865 -99.99081 32146 ft 456 kts 184°
2026-04-24 23:30 24.66698 -99.98904 32645 ft 454 kts 184°
2026-04-24 23:30 24.63551 -99.98727 33198 ft 451 kts 184°
2026-04-24 23:31 24.60421 -99.98551 33682 ft 450 kts 184°
2026-04-24 23:31 24.57301 -99.98376 34101 ft 449 kts 184°
2026-04-24 23:31 24.54190 -99.98203 34483 ft 447 kts 184°
2026-04-24 23:31 24.51089 -99.98031 34887 ft 445 kts 184°
2026-04-24 23:32 24.47996 -99.97859 35206 ft 445 kts 184°
2026-04-24 23:32 24.44915 -99.97686 35500 ft 443 kts 184°
2026-04-24 23:32 24.41845 -99.97514 35901 ft 440 kts 184°
2026-04-24 23:32 24.38784 -99.97343 36200 ft 440 kts 184°
2026-04-24 23:33 24.35774 -99.97176 36488 ft 439 kts 185°
2026-04-24 23:33 24.33715 -99.97061 36686 ft 438 kts 185°
2026-04-24 23:33 24.29693 -99.96835 37058 ft 437 kts 185°
2026-04-24 23:33 24.26652 -99.96665 37239 ft 438 kts 185°
2026-04-24 23:34 24.23623 -99.96494 37610 ft 435 kts 185°
2026-04-24 23:34 24.20567 -99.96323 37971 ft 433 kts 185°
2026-04-24 23:34 24.17603 -99.96157 38304 ft 431 kts 184°
2026-04-24 23:34 24.14610 -99.95984 38537 ft 431 kts 185°
2026-04-24 23:35 24.11621 -99.95815 38861 ft 427 kts 185°
2026-04-24 23:35 24.05606 -99.95489 38873 ft 439 kts 185°
2026-04-24 23:36 23.99427 -99.95153 38798 ft 450 kts 184°
2026-04-24 23:36 23.93164 -99.94803 38794 ft 453 kts 185°
2026-04-24 23:37 23.86850 -99.94450 38785 ft 454 kts 184°
2026-04-24 23:37 23.77400 -99.93925 38779 ft 454 kts 184°
2026-04-24 23:38 23.71099 -99.93575 38790 ft 454 kts 184°
2026-04-24 23:38 23.64799 -99.93227 38781 ft 453 kts 184°
2026-04-24 23:39 23.58497 -99.92878 38773 ft 453 kts 184°
2026-04-24 23:39 23.52194 -99.92530 38778 ft 454 kts 184°
2026-04-24 23:40 23.45892 -99.92182 38768 ft 453 kts 184°
2026-04-24 23:40 23.39592 -99.91837 38764 ft 453 kts 184°
2026-04-24 23:41 23.33294 -99.91478 38766 ft 453 kts 184°
2026-04-24 23:41 23.26992 -99.91124 38755 ft 451 kts 184°
2026-04-24 23:42 23.20710 -99.90770 38748 ft 452 kts 183°
2026-04-24 23:42 23.14423 -99.90413 38747 ft 453 kts 183°
2026-04-24 23:43 23.08127 -99.90060 38727 ft 453 kts 183°
2026-04-24 23:43 23.01855 -99.89704 38730 ft 451 kts 183°
2026-04-24 23:44 22.95620 -99.89356 38691 ft 452 kts 183°
2026-04-24 23:44 22.89344 -99.89006 38721 ft 455 kts 183°
2026-04-24 23:45 22.82969 -99.88655 38721 ft 463 kts 183°
2026-04-24 23:45 22.76514 -99.88292 38698 ft 465 kts 183°
2026-04-24 23:46 22.70049 -99.87927 38699 ft 465 kts 182°
2026-04-24 23:46 22.63572 -99.87564 38689 ft 465 kts 182°
2026-04-24 23:47 22.58155 -99.87262 38686 ft 465 kts 182°
2026-04-24 23:47 22.51687 -99.86903 38695 ft 466 kts 182°
2026-04-24 23:48 22.45217 -99.86542 38695 ft 465 kts 182°
2026-04-24 23:48 22.38789 -99.86185 38687 ft 466 kts 182°
2026-04-24 23:49 22.32315 -99.85824 38681 ft 466 kts 182°
2026-04-24 23:49 22.25844 -99.85465 38687 ft 466 kts 182°
2026-04-24 23:50 22.19368 -99.85107 38682 ft 466 kts 182°
2026-04-24 23:50 22.12890 -99.84748 38683 ft 466 kts 182°
2026-04-24 23:51 22.06411 -99.84389 38683 ft 466 kts 182°
2026-04-24 23:51 21.99937 -99.84030 38684 ft 466 kts 182°
2026-04-24 23:52 21.93459 -99.83671 38693 ft 466 kts 182°
2026-04-24 23:52 21.86976 -99.83315 38696 ft 466 kts 182°
2026-04-24 23:53 21.80498 -99.82958 38692 ft 466 kts 182°
2026-04-24 23:53 21.74027 -99.82600 38689 ft 465 kts 182°
2026-04-24 23:54 21.67557 -99.82242 38703 ft 466 kts 182°
2026-04-24 23:54 21.61084 -99.81887 38707 ft 465 kts 182°
2026-04-24 23:55 21.54616 -99.81532 38709 ft 465 kts 181°
2026-04-24 23:55 21.48160 -99.81178 38727 ft 464 kts 182°
2026-04-24 23:56 21.41708 -99.80824 38718 ft 465 kts 181°
2026-04-24 23:56 21.35249 -99.80469 38735 ft 465 kts 181°
2026-04-24 23:57 21.28792 -99.80116 38733 ft 464 kts 181°
2026-04-24 23:57 21.22344 -99.79762 38734 ft 464 kts 181°
2026-04-24 23:58 21.15890 -99.79410 38740 ft 464 kts 181°
2026-04-24 23:58 21.09489 -99.79060 38751 ft 464 kts 181°
2026-04-24 23:59 21.03048 -99.78709 38779 ft 464 kts 181°
2026-04-24 23:59 20.96607 -99.78479 38797 ft 463 kts 182°
2026-04-25 00:00 20.90170 -99.78273 38782 ft 463 kts 182°
2026-04-25 00:00 20.83733 -99.78051 38785 ft 463 kts 182°
2026-04-25 00:01 20.77296 -99.77829 38776 ft 463 kts 182°
2026-04-25 00:01 20.70865 -99.77605 38788 ft 462 kts 182°
2026-04-25 00:02 20.64433 -99.77387 38788 ft 462 kts 182°
2026-04-25 00:02 20.58002 -99.77171 38811 ft 462 kts 182°
2026-04-25 00:03 20.51575 -99.76953 38817 ft 462 kts 182°
2026-04-25 00:03 20.45241 -99.76734 38768 ft 433 kts 182°
2026-04-25 00:04 20.42270 -99.76628 37576 ft 427 kts 182°
2026-04-25 00:04 20.39317 -99.76531 36373 ft 422 kts 182°
2026-04-25 00:04 20.36409 -99.76434 35280 ft 416 kts 183°
2026-04-25 00:04 20.33539 -99.76338 34264 ft 409 kts 183°
2026-04-25 00:05 20.30759 -99.76244 33221 ft 402 kts 183°
2026-04-25 00:05 20.27978 -99.76152 32160 ft 398 kts 183°
2026-04-25 00:05 20.25198 -99.76061 31151 ft 404 kts 183°
2026-04-25 00:05 20.22354 -99.75972 30174 ft 414 kts 183°
2026-04-25 00:06 20.19475 -99.75797 29057 ft 414 kts 176°
2026-04-25 00:06 20.16652 -99.75236 27932 ft 410 kts 171°
2026-04-25 00:06 20.13896 -99.74598 26855 ft 402 kts 171°
2026-04-25 00:06 20.11190 -99.74007 25980 ft 391 kts 171°
2026-04-25 00:07 20.08554 -99.73455 25185 ft 383 kts 171°
2026-04-25 00:07 20.05960 -99.72925 24579 ft 379 kts 171°
2026-04-25 00:07 20.03365 -99.72405 23998 ft 381 kts 171°
2026-04-25 00:07 20.00762 -99.71886 23414 ft 380 kts 171°
2026-04-25 00:08 19.98168 -99.71370 22723 ft 377 kts 171°
2026-04-25 00:08 19.95599 -99.70859 22059 ft 373 kts 171°
2026-04-25 00:08 19.93058 -99.70355 21397 ft 370 kts 170°
2026-04-25 00:08 19.90544 -99.69858 20763 ft 366 kts 170°
2026-04-25 00:09 19.88056 -99.69365 20154 ft 362 kts 170°
2026-04-25 00:09 19.85604 -99.68877 19562 ft 354 kts 168°
2026-04-25 00:09 19.83359 -99.67891 18940 ft 349 kts 143°
2026-04-25 00:09 19.81702 -99.66059 18389 ft 340 kts 123°
2026-04-25 00:10 19.80482 -99.63976 17830 ft 325 kts 120°
2026-04-25 00:10 19.79374 -99.61942 17236 ft 313 kts 114°
2026-04-25 00:10 19.78875 -99.59754 16954 ft 298 kts 89°
2026-04-25 00:10 19.79279 -99.57619 17216 ft 297 kts 63°
2026-04-25 00:11 19.80433 -99.55956 18516 ft 259 kts 47°
2026-04-25 00:11 19.81514 -99.54574 19791 ft 231 kts 49°
2026-04-25 00:11 19.82491 -99.53293 20735 ft 216 kts 46°
2026-04-25 00:11 19.83462 -99.52118 21441 ft 208 kts 44°
2026-04-25 00:12 19.84440 -99.51010 21967 ft 203 kts 41°
2026-04-25 00:12 19.85437 -99.49961 22418 ft 201 kts 39°
2026-04-25 00:12 19.86449 -99.48946 22778 ft 200 kts 39°
2026-04-25 00:12 19.87473 -99.47939 23073 ft 201 kts 38°
2026-04-25 00:13 19.88491 -99.46896 23332 ft 207 kts 46°
2026-04-25 00:13 19.89363 -99.45581 23346 ft 231 kts 60°
2026-04-25 00:13 19.89925 -99.43946 23023 ft 246 kts 72°
2026-04-25 00:13 19.90350 -99.41998 22567 ft 291 kts 75°
2026-04-25 00:14 19.90790 -99.39809 22506 ft 312 kts 75°
2026-04-25 00:14 19.91289 -99.37491 22723 ft 330 kts 74°
2026-04-25 00:14 19.91794 -99.35053 22485 ft 346 kts 80°
2026-04-25 00:14 19.91650 -99.32465 21707 ft 358 kts 105°
2026-04-25 00:15 19.90470 -99.30131 20960 ft 364 kts 131°
2026-04-25 00:15 19.88462 -99.28519 20254 ft 365 kts 156°
2026-04-25 00:15 19.86043 -99.27950 19559 ft 350 kts 182°
2026-04-25 00:15 19.83754 -99.28413 18944 ft 332 kts 198°
2026-04-25 00:16 19.81572 -99.29032 18357 ft 319 kts 192°
2026-04-25 00:16 19.79387 -99.29363 17713 ft 308 kts 186°
2026-04-25 00:16 19.77278 -99.29507 17095 ft 300 kts 183°
2026-04-25 00:16 19.75383 -99.29572 16560 ft 298 kts 182°
2026-04-25 00:17 19.73307 -99.29614 16001 ft 299 kts 182°
2026-04-25 00:17 19.71221 -99.29627 15460 ft 300 kts 181°
2026-04-25 00:17 19.69133 -99.29603 14930 ft 300 kts 180°
2026-04-25 00:17 19.67059 -99.29552 14235 ft 305 kts 180°
2026-04-25 00:18 19.64958 -99.29479 14060 ft 292 kts 179°
2026-04-25 00:18 19.62914 -99.29378 13977 ft 291 kts 179°
2026-04-25 00:18 19.60948 -99.29275 13841 ft 277 kts 178°
2026-04-25 00:18 19.59095 -99.29017 13562 ft 269 kts 161°
2026-04-25 00:19 19.57525 -99.28017 13387 ft 263 kts 141°
2026-04-25 00:19 19.56131 -99.26722 13131 ft 269 kts 137°
2026-04-25 00:19 19.54770 -99.25383 12818 ft 262 kts 137°
2026-04-25 00:19 19.53469 -99.24127 12457 ft 246 kts 138°
2026-04-25 00:20 19.51997 -99.23297 12071 ft 240 kts 168°
2026-04-25 00:20 19.50332 -99.23205 11726 ft 237 kts 185°
2026-04-25 00:20 19.48684 -99.23332 11351 ft 237 kts 185°
2026-04-25 00:20 19.47046 -99.23396 11033 ft 235 kts 183°
2026-04-25 00:21 19.45425 -99.23408 10682 ft 228 kts 182°
2026-04-25 00:21 19.43881 -99.23381 10343 ft 216 kts 180°
2026-04-25 00:21 19.42428 -99.23348 10116 ft 202 kts 181°
2026-04-25 00:21 19.41073 -99.23321 9892 ft 189 kts 182°
2026-04-25 00:22 19.39806 -99.23143 9692 ft 180 kts 165°
2026-04-25 00:22 19.38708 -99.22562 9484 ft 175 kts 145°
2026-04-25 00:22 19.37871 -99.21645 9390 ft 174 kts 126°
2026-04-25 00:22 19.37349 -99.20498 9310 ft 178 kts 107°
2026-04-25 00:23 19.37201 -99.19169 9175 ft 180 kts 87°
2026-04-25 00:23 19.37485 -99.17911 9066 ft 173 kts 68°
2026-04-25 00:23 19.38055 -99.16817 9023 ft 167 kts 62°
2026-04-25 00:23 19.38665 -99.15755 9009 ft 172 kts 60°
2026-04-25 00:24 19.39300 -99.14689 8925 ft 168 kts 60°
2026-04-25 00:24 19.39885 -99.13666 8821 ft 164 kts 62°
2026-04-25 00:24 19.40457 -99.12626 8564 ft 161 kts 59°
2026-04-25 00:24 19.41014 -99.11637 8240 ft 156 kts 60°
2026-04-25 00:25 19.41583 -99.10621 7937 ft 160 kts 62°
2026-04-25 00:25 19.42146 -99.09604 7620 ft 165 kts 63°
2026-04-25 00:25 19.42699 -99.08606 7384 ft 147 kts 64°
2026-04-25 00:25 19.43189 -99.07718 7304 ft 125 kts 62°
2026-04-25 00:26 19.43506 -99.07148 7301 ft 48 kts 60°
2026-04-25 00:26 19.43569 -99.06978 7301 ft 5 kts 124°
2026-04-25 00:26 19.43529 -99.06940 7301 ft 10 kts 137°
2026-04-25 00:26 19.43474 -99.06887 7302 ft 11 kts 137°
2026-04-25 00:27 19.43419 -99.06834 7302 ft 12 kts 138°
2026-04-25 00:27 19.43348 -99.06814 7301 ft 11 kts 203°
2026-04-25 00:27 19.43291 -99.06881 7301 ft 14 kts 242°
2026-04-25 00:27 19.43238 -99.06986 7301 ft 18 kts 241°
2026-04-25 00:28 19.43176 -99.07112 7302 ft 15 kts 256°
2026-04-25 00:28 19.43134 -99.07225 7301 ft 18 kts 238°
2026-04-25 00:28 19.43063 -99.07348 7301 ft 21 kts 239°
2026-04-25 00:28 19.42992 -99.07483 7301 ft 21 kts 243°
2026-04-25 00:29 19.42925 -99.07606 7301 ft 18 kts 238°
2026-04-25 00:29 19.42869 -99.07709 7302 ft 13 kts 243°
2026-04-25 00:29 19.42822 -99.07809 7301 ft 17 kts 243°
2026-04-25 00:29 19.42764 -99.07905 7301 ft 16 kts 237°
2026-04-25 00:30 19.42696 -99.08017 7302 ft 20 kts 236°
2026-04-25 00:30 19.42631 -99.08130 7301 ft 11 kts 231°
2026-04-25 00:30 19.42563 -99.08121 7301 ft 12 kts 151°
2026-04-25 00:30 19.42486 -99.08073 7301 ft 14 kts 149°
2026-04-25 00:31 19.42418 -99.08032 7301 ft 9 kts 151°
2026-04-25 00:31 19.42372 -99.07998 7302 ft 7 kts 136°
2026-04-25 00:31 19.42338 -99.07959 7302 ft 7 kts 130°
2026-04-25 00:31 19.42309 -99.07921 7302 ft 7 kts 129°
2026-04-25 00:32 19.42285 -99.07883 7301 ft 6 kts 103°
2026-04-25 00:32 19.42296 -99.07844 7301 ft 6 kts 63°
2026-04-25 00:32 19.42301 -99.07834 7302 ft 0 kts 63°